FW6610 Weather Reports


time (UTC)temp
F
wind
direction
speed
knots
gust
knots
rain 1hr
in
rain 24hr
in
rain mn
in
humidity
%
barometer
mb
20260507235029 53 293 0.9 5.2 0.00 0.06 0.00 42 1008.7
20260507234535 53 266 1.7 5.2 0.00 0.06 0.00 40 1008.8
20260507234025 54 336 1.7 6.1 0.00 0.06 0.00 39 1008.6
20260507233528 54 44 2.6 7.0 0.00 0.06 0.00 39 1008.5
20260507233044 54 347 2.6 7.0 0.00 0.06 0.00 38 1008.5
20260507232525 54 309 1.7 7.0 0.00 0.06 0.00 38 1008.5
20260507232024 55 302 2.6 7.0 0.00 0.06 0.00 38 1008.5
20260507231540 55 343 1.7 7.0 0.00 0.06 0.00 38 1008.5
20260507231027 55 236 1.7 7.0 0.00 0.06 0.00 39 1008.5
20260507230530 55 253 0.9 7.0 0.00 0.06 0.00 38 1008.4
20260507230044 56 292 3.5 9.6 0.00 0.06 0.00 37 1008.5
20260507225525 56 285 3.5 10.4 0.00 0.07 0.00 36 1008.3
20260507225027 56 5 4.3 13.0 0.00 0.07 0.00 36 1008.3
20260507224557 57 341 5.2 15.6 0.00 0.07 0.00 36 1008.3
20260507224026 57 265 5.2 15.6 0.00 0.07 0.00 36 1008.5
20260507223528 57 342 2.6 10.4 0.00 0.07 0.00 36 1008.3
20260507223040 57 345 4.3 9.6 0.00 0.07 0.00 37 1008.3
20260507222530 58 297 4.3 11.3 0.00 0.07 0.00 37 1008.3
20260507222030 58 283 3.5 11.3 0.00 0.07 0.00 37 1008.2
20260507221538 58 325 2.6 10.4 0.00 0.07 0.00 36 1008.1
20260507221029 58 354 3.5 10.4 0.00 0.07 0.00 38 1008.1
20260507220529 58 18 4.3 10.4 0.00 0.07 0.00 37 1008.3
20260507220044 58 322 5.2 13.0 0.00 0.07 0.00 37 1008.3
20260507215530 58 302 6.1 13.0 0.00 0.13 0.00 37 1008.1
20260507215031 58 301 4.3 12.2 0.00 0.13 0.00 40 1008.3
20260507214542 58 341 3.5 15.6 0.00 0.13 0.00 40 1008.1
20260507214029 58 328 4.3 15.6 0.00 0.13 0.00 37 1008.2
20260507213530 59 294 7.0 15.6 0.00 0.13 0.00 38 1008.1
20260507213054 59 290 3.5 10.4 0.00 0.13 0.00 39 1008.1
20260507212530 59 264 5.2 13.0 0.00 0.13 0.00 36 1008.0
20260507212030 59 308 4.3 14.8 0.00 0.13 0.00 39 1007.9
20260507211544 58 16 6.1 14.8 0.00 0.13 0.00 39 1008.0
20260507211030 59 315 4.3 20.9 0.00 0.13 0.00 39 1008.0
20260507210530 59 323 3.5 20.9 0.00 0.13 0.00 39 1008.0
20260507210040 58 311 4.3 15.6 0.00 0.13 0.00 37 1007.8
20260507205530 59 261 5.2 13.0 0.00 0.16 0.00 39 1007.7
20260507205033 58 335 6.1 13.0 0.00 0.16 0.00 37 1007.8
20260507204548 59 343 6.1 11.3 0.00 0.16 0.00 40 1007.8
20260507204030 59 279 3.5 11.3 0.00 0.16 0.00 39 1007.9
20260507203530 58 352 4.3 11.3 0.00 0.16 0.00 38 1007.9
20260507203044 58 356 4.3 12.2 0.00 0.16 0.00 42 1008.0
20260507202529 58 325 4.3 15.6 0.00 0.16 0.00 40 1008.1
20260507202029 58 317 3.5 15.6 0.00 0.16 0.00 41 1007.9
20260507201544 58 303 7.0 15.6 0.00 0.16 0.00 38 1007.9
20260507201030 59 311 4.3 15.6 0.00 0.16 0.00 37 1007.9
20260507200530 58 302 7.0 15.6 0.00 0.16 0.00 40 1008.1
20260507200042 58 319 3.5 12.2 0.00 0.16 0.00 41 1008.1
20260507195530 58 318 4.3 12.2 0.00 0.19 0.00 39 1008.1
20260507195030 58 340 7.0 12.2 0.00 0.19 0.00 39 1008.1
20260507194539 59 335 5.2 19.1 0.00 0.19 0.00 40 1008.1
20260507194029 59 173 5.2 19.1 0.00 0.19 0.00 43 1008.0
20260507193532 59 154 6.1 19.1 0.00 0.19 0.00 39 1008.0
20260507193038 59 8 4.3 11.3 0.00 0.19 0.00 41 1008.0
20260507192529 59 295 4.3 13.0 0.00 0.19 0.00 42 1008.2
20260507192030 59 309 5.2 13.0 0.00 0.19 0.00 39 1008.2
20260507191545 59 244 5.2 11.3 0.00 0.19 0.00 41 1008.1
20260507191029 59 15 4.3 11.3 0.00 0.19 0.00 42 1008.2
20260507190530 58 342 6.1 11.3 0.00 0.19 0.00 43 1008.4
20260507190045 57 293 3.5 10.4 0.00 0.19 0.00 45 1008.4
20260507185530 57 315 1.7 6.1 0.00 0.23 0.00 45 1008.4
20260507185030 56 293 2.6 10.4 0.00 0.23 0.00 45 1008.5
20260507184541 56 295 2.6 10.4 0.00 0.23 0.00 43 1008.5
20260507184032 57 305 5.2 10.4 0.00 0.23 0.00 41 1008.5
20260507183534 58 349 4.3 9.6 0.00 0.23 0.00 41 1008.5
20260507183045 59 285 2.6 13.0 0.00 0.23 0.00 43 1008.7
20260507182529 59 263 3.5 13.0 0.00 0.23 0.00 41 1008.5
20260507182030 59 6 4.3 10.4 0.00 0.23 0.00 42 1008.6
20260507181542 58 324 4.3 10.4 0.00 0.23 0.00 43 1008.6
20260507181030 59 309 2.6 7.0 0.00 0.23 0.00 44 1008.6
20260507180530 59 348 2.6 9.6 0.00 0.23 0.00 40 1008.7
20260507180053 59 341 3.5 9.6 0.00 0.23 0.00 42 1008.7
20260507175530 58 327 4.3 9.6 0.00 0.29 0.00 41 1008.7
20260507175030 58 343 4.3 9.6 0.00 0.29 0.00 42 1008.8
20260507174546 58 8 5.2 9.6 0.00 0.29 0.00 40 1008.8
20260507174029 59 323 4.3 13.0 0.00 0.29 0.00 46 1008.8
20260507173529 59 309 4.3 13.0 0.00 0.29 0.00 42 1008.7
20260507173051 58 250 2.6 11.3 0.00 0.29 0.00 40 1008.7
20260507172529 59 328 5.2 11.3 0.00 0.29 0.00 43 1008.6
20260507172030 59 72 3.5 9.6 0.00 0.29 0.00 40 1008.9
20260507171544 59 290 3.5 9.6 0.00 0.29 0.00 42 1008.7
20260507171029 59 12 3.5 10.4 0.00 0.29 0.00 42 1008.8
20260507170530 59 354 3.5 10.4 0.00 0.29 0.00 39 1008.9
20260507170043 58 352 3.5 10.4 0.00 0.29 0.00 40 1008.8
20260507165530 58 328 3.5 14.8 0.00 0.29 0.00 41 1009.0
20260507165035 58 8 6.1 14.8 0.00 0.29 0.00 41 1009.0
20260507164554 58 351 5.2 12.2 0.00 0.29 0.00 42 1009.1
20260507164033 58 32 2.6 11.3 0.00 0.29 0.00 43 1009.1
20260507163529 58 34 3.5 8.7 0.00 0.29 0.00 44 1009.2
20260507163048 58 323 4.3 11.3 0.00 0.29 0.00 44 1009.4
20260507162530 58 335 3.5 11.3 0.00 0.29 0.00 43 1009.6
20260507162030 57 290 5.2 11.3 0.00 0.29 0.00 41 1009.6
20260507161545 57 217 3.5 15.6 0.00 0.29 0.00 44 1009.7
20260507161029 57 283 5.2 15.6 0.00 0.29 0.00 41 1009.7
20260507160533 57 359 6.1 15.6 0.00 0.29 0.00 42 1010.0
20260507160059 57 325 2.6 6.1 0.00 0.29 0.00 53 1009.9
20260507155529 57 69 2.6 8.7 0.00 0.29 0.00 45 1010.0
20260507155029 57 345 3.5 8.7 0.00 0.29 0.00 47 1009.9
20260507154544 57 20 3.5 9.6 0.00 0.29 0.00 43 1010.0
20260507154030 57 241 3.5 10.4 0.00 0.29 0.00 43 1009.9
20260507153529 57 324 2.6 10.4 0.00 0.29 0.00 49 1010.1
20260507153049 56 10 5.2 10.4 0.00 0.29 0.00 47 1010.1
20260507152529 56 346 3.5 12.2 0.00 0.29 0.00 44 1009.9
20260507152030 56 311 4.3 12.2 0.00 0.29 0.00 45 1010.1
20260507151539 55 332 4.3 12.2 0.00 0.29 0.00 44 1010.1
20260507151030 55 293 4.3 12.2 0.00 0.29 0.00 47 1010.2
20260507150533 55 8 5.2 12.2 0.00 0.29 0.00 44 1010.2
20260507150047 55 350 4.3 13.9 0.00 0.29 0.00 45 1010.3
20260507145532 55 301 6.1 13.9 0.00 0.29 0.00 43 1010.3
20260507145029 55 359 5.2 11.3 0.00 0.29 0.00 46 1010.4
20260507144550 55 326 3.5 12.2 0.00 0.29 0.00 48 1010.5
20260507144030 54 309 7.0 12.2 0.00 0.29 0.00 42 1010.5
20260507143532 55 331 4.3 12.2 0.00 0.29 0.00 48 1010.6
20260507143042 54 329 4.3 12.2 0.00 0.29 0.00 43 1010.6
20260507142530 54 284 6.1 14.8 0.00 0.29 0.00 45 1010.6
20260507142029 54 354 4.3 14.8 0.00 0.29 0.00 48 1010.5
20260507141542 54 304 7.0 13.9 0.00 0.29 0.00 43 1010.4
20260507141033 54 23 3.5 8.7 0.00 0.29 0.00 44 1010.4
20260507140530 54 314 2.6 13.0 0.00 0.29 0.00 46 1010.4
20260507140104 54 271 3.5 13.0 0.00 0.29 0.00 47 1010.4
20260507135530 54 356 1.7 7.8 0.00 0.29 0.00 54 1010.2
20260507135030 54 159 2.6 8.7 0.00 0.29 0.00 46 1010.2
20260507134541 53 249 5.2 10.4 0.00 0.29 0.00 46 1010.2
20260507134030 54 342 2.6 10.4 0.00 0.29 0.00 48 1010.2
20260507133530 53 296 2.6 8.7 0.00 0.29 0.00 51 1010.2
20260507133048 53 347 4.3 8.7 0.00 0.29 0.00 50 1010.1
20260507132529 53 358 1.7 12.2 0.00 0.29 0.00 49 1010.2
20260507132029 53 274 5.2 12.2 0.00 0.29 0.00 49 1010.2
20260507131552 53 336 2.6 8.7 0.00 0.29 0.00 49 1010.2
20260507131031 53 313 4.3 8.7 0.00 0.29 0.00 51 1010.1
20260507130534 53 297 1.7 13.0 0.00 0.29 0.00 55 1009.9
20260507130051 52 316 3.5 13.0 0.00 0.29 0.00 56 1010.2
20260507125534 52 350 2.6 7.8 0.00 0.29 0.00 55 1010.1
20260507125030 52 340 2.6 8.7 0.00 0.29 0.00 56 1010.0
20260507124552 51 297 2.6 8.7 0.00 0.29 0.00 56 1010.0
20260507124029 51 236 5.2 10.4 0.00 0.29 0.00 55 1010.1
20260507123531 51 295 4.3 12.2 0.00 0.29 0.00 59 1010.1
20260507123053 51 89 3.5 12.2 0.00 0.29 0.00 59 1010.2
20260507122533 51 340 3.5 11.3 0.00 0.29 0.00 58 1010.2
20260507122030 51 252 3.5 11.3 0.00 0.29 0.00 59 1010.2
20260507121542 50 284 4.3 11.3 0.00 0.29 0.00 59 1010.3
20260507121029 50 284 3.5 9.6 0.00 0.29 0.00 64 1010.2
20260507120530 50 281 2.6 9.6 0.00 0.29 0.00 64 1010.1
20260507120048 50 293 2.6 9.6 0.00 0.29 0.00 68 1010.1
20260507115530 50 334 2.6 10.4 0.00 0.29 0.00 66 1010.2
20260507115030 49 347 5.2 10.4 0.00 0.29 0.00 67 1010.0
20260507114547 49 36 3.5 10.4 0.00 0.29 0.00 71 1009.9
20260507114031 49 347 3.5 10.4 0.00 0.29 0.00 73 1009.9
20260507113530 49 307 4.3 7.8 0.00 0.29 0.00 75 1009.8
20260507113044 49 274 3.5 7.8 0.00 0.29 0.00 77 1009.9
20260507112531 48 299 2.6 7.0 0.00 0.29 0.00 78 1009.7
20260507112030 48 344 2.6 7.0 0.00 0.29 0.00 80 1009.7
20260507111545 48 333 0.9 8.7 0.00 0.29 0.00 80 1009.6
20260507111029 47 266 1.7 8.7 0.00 0.29 0.00 81 1009.4
20260507110529 47 315 2.6 8.7 0.00 0.29 0.00 81 1009.4
20260507110043 48 329 1.7 7.8 0.00 0.29 0.00 81 1009.5
20260507105531 48 340 2.6 8.7 0.00 0.29 0.00 80 1009.4
20260507105030 48 347 3.5 8.7 0.00 0.29 0.00 79 1009.3
20260507104541 48 326 2.6 7.0 0.00 0.29 0.00 80 1009.3
20260507104029 48 17 0.9 7.0 0.00 0.29 0.00 81 1009.3
20260507103529 48 333 1.7 7.0 0.00 0.29 0.00 81 1009.3
20260507103035 48 226 1.7 5.2 0.00 0.29 0.00 81 1008.9
20260507102530 48 335 0.9 5.2 0.00 0.29 0.00 82 1008.9
20260507102029 48 0 0.0 4.3 0.00 0.29 0.00 82 1008.9
20260507101547 48 335 0.9 3.5 0.00 0.29 0.00 82 1008.8
20260507101029 48 0 0.9 5.2 0.00 0.29 0.00 81 1008.9
20260507100529 48 296 0.9 5.2 0.00 0.29 0.00 81 1008.8
20260507100045 48 274 1.7 4.3 0.00 0.29 0.00 81 1008.7
20260507095530 48 266 1.7 4.3 0.00 0.29 0.00 82 1008.7
20260507095029 48 283 1.7 4.3 0.00 0.29 0.00 82 1008.6
20260507094541 48 255 0.0 3.5 0.00 0.29 0.00 83 1008.7
20260507094029 48 282 0.9 3.5 0.00 0.29 0.00 83 1008.7
20260507093529 48 342 0.9 4.3 0.00 0.29 0.00 84 1008.7
20260507093042 48 295 0.9 5.2 0.00 0.29 0.00 84 1008.7
20260507092532 48 334 1.7 5.2 0.00 0.29 0.00 84 1008.7
20260507092029 48 0 0.0 3.5 0.00 0.29 0.00 86 1008.8
20260507091539 48 14 0.0 2.6 0.00 0.29 0.00 86 1008.7
20260507091029 48 0 0.0 2.6 0.00 0.29 0.00 86 1008.8
20260507090528 48 335 0.0 3.5 0.00 0.29 0.00 86 1008.9
20260507090041 48 0 0.0 4.3 0.00 0.29 0.00 87 1008.9
20260507085529 48 291 0.0 4.3 0.00 0.29 0.00 87 1009.1
20260507085030 49 0 0.0 4.3 0.00 0.29 0.00 87 1009.0
20260507084537 49 0 0.9 4.3 0.00 0.29 0.00 88 1008.8
20260507084036 49 288 0.9 3.5 0.00 0.29 0.00 88 1009.0
20260507083530 48 0 0.9 3.5 0.00 0.29 0.00 89 1009.1
20260507083049 48 0 0.0 1.7 0.00 0.29 0.00 90 1008.8
20260507082529 48 0 0.0 1.7 0.00 0.29 0.00 91 1009.1
20260507082029 48 0 0.0 1.7 0.00 0.29 0.00 92 1009.1
20260507081541 48 0 0.0 1.7 0.00 0.29 0.00 92 1009.2
20260507081030 48 270 0.0 1.7 0.00 0.29 0.00 93 1009.4
20260507080529 48 0 0.0 0.9 0.00 0.29 0.00 93 1009.1
20260507080053 49 0 0.0 0.9 0.00 0.29 0.00 93 1009.1
20260507075529 49 0 0.0 0.9 0.00 0.29 0.00 93 1009.1
20260507075029 49 0 0.0 0.0 0.00 0.29 0.00 93 1008.9
20260507074545 49 0 0.0 0.0 0.00 0.29 0.00 92 1009.0
20260507074029 49 0 0.0 0.0 0.00 0.29 0.00 92 1008.9
20260507073530 49 0 0.0 0.0 0.00 0.29 0.00 92 1009.1
20260507073037 49 0 0.0 0.0 0.00 0.29 0.00 91 1009.2
20260507072529 49 0 0.0 0.9 0.00 0.29 0.00 91 1008.8
20260507072028 49 0 0.0 0.9 0.00 0.29 0.00 90 1009.0
20260507071552 49 7 0.0 0.9 0.00 0.29 0.00 89 1008.6
20260507071032 50 0 0.0 1.7 0.00 0.29 0.00 88 1008.5
20260507070530 50 0 0.0 2.6 0.00 0.29 0.00 88 1008.7
20260507070039 50 0 0.0 5.2 0.00 0.29 0.00 87 1008.4
20260507065529 50 338 0.9 5.2 0.00 0.29 0.00 87 1008.7
20260507065029 50 264 0.9 5.2 0.00 0.29 0.00 87 1008.9
20260507064551 50 288 0.0 4.3 0.00 0.29 0.00 87 1008.8
20260507064030 50 307 0.9 4.3 0.00 0.29 0.00 87 1008.5
20260507063529 50 283 1.7 4.3 0.00 0.29 0.00 87 1008.6
20260507063046 50 315 0.9 3.5 0.00 0.29 0.00 87 1008.5
20260507062529 50 269 0.9 3.5 0.00 0.29 0.00 87 1008.4
20260507062029 50 317 0.9 3.5 0.00 0.29 0.00 87 1008.1
20260507061541 50 306 0.9 3.5 0.00 0.29 0.00 86 1008.0
20260507061029 50 323 0.9 3.5 0.00 0.29 0.00 86 1008.3
20260507060529 51 314 0.9 2.6 0.00 0.29 0.00 86 1008.3
20260507060043 51 0 0.9 4.3 0.00 0.29 0.00 86 1008.3
20260507055529 51 0 0.9 4.3 0.00 0.29 0.00 85 1008.1
20260507055031 51 298 0.9 4.3 0.00 0.29 0.00 85 1008.6
20260507054549 51 0 0.9 4.3 0.00 0.29 0.00 85 1008.8
20260507054029 51 314 1.7 4.3 0.00 0.29 0.00 85 1008.7
20260507053529 51 259 0.0 4.3 0.00 0.29 0.00 85 1008.8
20260507053045 51 0 0.9 4.3 0.00 0.29 0.00 86 1008.6
20260507052529 51 267 1.7 4.3 0.00 0.29 0.00 85 1008.8
20260507052029 51 298 1.7 3.5 0.00 0.29 0.00 87 1009.0
20260507051536 51 340 0.0 1.7 0.00 0.29 0.00 86 1008.8
20260507051028 51 0 0.0 2.6 0.00 0.29 0.00 86 1009.0
20260507050529 51 262 0.9 2.6 0.00 0.29 0.00 87 1009.0
20260507050044 51 314 0.0 2.6 0.00 0.29 0.00 87 1009.0
20260507045530 51 345 0.9 3.5 0.00 0.29 0.00 87 1009.0
20260507045030 51 359 0.9 3.5 0.00 0.29 0.00 86 1009.2
20260507044542 51 324 1.7 5.2 0.00 0.29 0.00 87 1009.2
20260507044029 51 343 1.7 5.2 0.00 0.29 0.00 87 1009.1
20260507043529 51 329 1.7 4.3 0.00 0.29 0.00 88 1009.2
20260507043040 51 0 0.0 0.9 0.00 0.29 0.00 92 1009.0
20260507042530 51 0 0.0 0.9 0.00 0.29 0.00 92 1009.0
20260507042029 51 0 0.0 0.0 0.00 0.29 0.00 91 1009.1
20260507041539 51 0 0.0 0.0 0.00 0.29 0.00 91 1008.8
20260507041030 51 0 0.0 0.9 0.00 0.29 0.00 90 1008.9
20260507040530 52 0 0.0 0.9 0.00 0.29 0.00 89 1008.9
20260507040057 52 0 0.0 0.9 0.00 0.29 0.00 90 1008.6
20260507035529 52 315 0.0 1.7 0.00 0.29 0.29 90 1008.8
20260507035030 52 0 0.0 1.7 0.00 0.29 0.29 90 1008.7
20260507034549 52 307 0.0 1.7 0.00 0.29 0.29 90 1008.6
20260507034031 52 0 0.0 0.9 0.00 0.29 0.29 90 1008.7
20260507033532 52 338 0.0 1.7 0.00 0.29 0.29 90 1008.8
20260507033045 52 0 0.0 2.6 0.00 0.29 0.29 89 1008.9
20260507032529 53 0 0.0 2.6 0.00 0.29 0.29 88 1009.0
20260507032032 53 0 0.9 3.5 0.00 0.29 0.29 88 1009.0
20260507031541 53 0 0.9 3.5 0.00 0.29 0.29 87 1008.9
20260507031033 53 306 0.9 3.5 0.00 0.29 0.29 87 1008.9
20260507030529 53 0 0.0 2.6 0.00 0.29 0.29 88 1008.9
20260507030038 53 317 0.9 3.5 0.00 0.29 0.29 87 1009.0
20260507025529 53 0 0.9 3.5 0.00 0.29 0.29 87 1008.7
20260507025030 53 290 0.9 3.5 0.00 0.29 0.29 88 1008.8
20260507024544 53 302 0.0 1.7 0.00 0.29 0.29 88 1008.4
20260507024031 53 325 0.0 1.7 0.00 0.29 0.29 89 1008.5
20260507023530 54 0 0.0 4.3 0.00 0.29 0.29 90 1008.6
20260507023041 54 3 1.7 5.2 0.01 0.29 0.29 88 1008.5
20260507022530 54 288 1.7 5.2 0.01 0.29 0.29 89 1008.6
20260507022030 54 344 0.0 2.6 0.01 0.29 0.29 92 1008.5
20260507021544 54 0 0.0 0.9 0.01 0.29 0.29 92 1008.3
20260507021029 54 0 0.0 1.7 0.01 0.29 0.29 91 1008.2
20260507020530 55 0 0.0 6.1 0.01 0.29 0.29 90 1008.2
20260507020037 55 195 0.9 6.1 0.01 0.29 0.29 89 1008.0
20260507015531 55 320 2.6 8.7 0.01 0.29 0.29 89 1007.8
20260507015030 55 0 2.6 8.7 0.01 0.29 0.29 90 1007.7
20260507014559 55 23 1.7 7.0 0.01 0.29 0.29 91 1007.9
20260507014030 56 0 2.6 7.0 0.01 0.29 0.29 92 1007.9
20260507013525 56 317 0.0 1.7 0.01 0.29 0.29 94 1007.8
20260507013041 56 0 0.0 0.9 0.00 0.28 0.28 95 1007.9
20260507012526 56 0 0.0 0.9 0.01 0.28 0.28 95 1007.5
20260507012026 57 0 0.0 0.9 0.05 0.28 0.28 95 1007.4
20260507011554 57 0 0.0 1.7 0.05 0.28 0.28 95 1007.1
20260507011029 57 0 0.0 1.7 0.05 0.28 0.28 95 1007.1
20260507010529 57 140 0.9 1.7 0.05 0.28 0.28 94 1007.1
20260507010043 58 0 0.0 0.9 0.05 0.28 0.28 94 1007.1
20260507005530 58 252 0.0 1.7 0.05 0.28 0.28 94 1007.0
20260507005030 58 279 0.0 3.5 0.05 0.28 0.28 94 1007.0
20260507004542 58 11 0.0 3.5 0.05 0.28 0.28 95 1006.5
20260507004029 58 300 0.9 5.2 0.05 0.28 0.28 96 1006.8
20260507003530 58 276 0.0 5.2 0.05 0.28 0.28 96 1006.8
20260507003038 59 332 1.7 5.2 0.05 0.28 0.28 97 1006.7
20260507002529 59 346 0.9 2.6 0.03 0.26 0.26 97 1006.8
20260507002026 59 198 0.9 4.3 0.00 0.23 0.23 97 1006.4
20260507001555 59 146 0.9 4.3 0.00 0.23 0.23 97 1006.1
20260507001029 59 126 0.9 4.3 0.00 0.23 0.23 97 1006.1
20260507000529 59 158 0.9 4.3 0.00 0.23 0.23 97 1006.1
20260507000046 59 141 0.9 4.3 0.00 0.23 0.23 97 1006.0
20260506235530 59 150 0.9 4.3 0.00 0.23 0.23 97 1006.1